This demonstration page uses our WeatherBlox Daily Observations layout. Learn more.

Left ArrowRight Arrow

Hourly Observations for May 23, 2015

Temp ( °F °C ) Dew Point ( °F °C ) Humidity (%) Winds ( mph kmh ) Pressure ( in mb ) Visibility ( mi km ) Precip ( " mm )
12:52 am 00:52 Cloudy 59 15 49 9.4 69 69 SSE 7 11 30.18 1022 10 16 0.00 0.00
1:52 am 01:52 Cloudy 60 15.6 49 9.4 67 67 SSE 10 17 30.18 1022 10 16 0.00 0.00
2:52 am 02:52 Cloudy 59 15 50 10 72 72 SSE 7 11 30.19 1022 10 16 0.00 0.00
3:52 am 03:52 Cloudy 59 15 50 10 72 72 SE 8 13 30.19 1022 10 16 0.00 0.00
4:52 am 04:52 Cloudy 59 15 50 10 72 72 SSE 5 7 30.19 1022 10 16 0.00 0.00
5:52 am 05:52 Cloudy 58 14.4 51 10.6 78 78 SE 6 9 30.18 1022 10 16 0.00 0.00
6:52 am 06:52 Cloudy 59 15 51 10.6 75 75 SSE 6 9 30.19 1023 10 16 0.00 0.00
7:52 am 07:52 Cloudy 59 15 52 11.1 78 78 SSE 8 13 30.21 1023 10 16 0.00 0.00
8:52 am 08:52 Mostly Cloudy 61 16.1 54 12.2 78 78 SSE 13 20 30.19 1022 10 16 0.00 0.03
9:52 am 09:52 Cloudy 62 16.7 53 11.7 73 73 SSE 13 20 30.19 1022 10 16 0.00 0.00
10:52 am 10:52 Cloudy 61 16.1 54 12.2 78 78 SSE 15 24 30.19 1022 10 16 0.00 0.00
11:52 am 11:52 Cloudy 60 15.6 55 12.8 84 84 SSE 14 22 30.17 1022 10 16 0.00 0.00
12:16 pm 12:16 Cloudy 60 15.6 55 12.8 84 84 SE 14 22 30.18 1022 10 16 0.00 0.00
12:52 pm 12:52 Cloudy 62 16.7 54 12.2 75 75 SE 14 22 30.16 1021 10 16 0.00 0.00
1:17 pm 13:17 Cloudy 62 16.7 55 12.8 78 78 SE 13 20 30.15 1021 10 16 0.00 0.00
1:52 pm 13:52 Cloudy 63 17.2 55 12.8 76 76 SSE 14 22 30.14 1021 10 16 0.00 0.00
2:52 pm 14:52 Cloudy 64 17.8 56 13.3 75 75 SSE 9 15 30.13 1020 10 16 0.00 0.00
3:52 pm 15:52 Cloudy 65 18.3 57 13.9 76 76 SSE 8 13 30.11 1020 10 16 0.00 0.00
4:52 pm 16:52 Cloudy 65 18.3 57 13.9 76 76 SSE 5 7 30.10 1019 10 16 0.00 0.00
5:52 pm 17:52 Cloudy 65 18.3 58 14.4 78 78 NE 3 6 30.08 1019 10 16 0.00 0.00
6:52 pm 18:52 Cloudy 65 18.3 58 14.4 78 78 E 5 7 30.06 1018 10 16 0.00 0.00
7:41 pm 19:41 Cloudy 65 18.3 59 15 81 81 ESE 8 13 30.00 1016 10 16 0.00 0.03
7:52 pm 19:52 Cloudy with Light Rain 65 18.3 59 15 81 81 ESE 9 15 30.02 1017 10 16 0.00 0.03
8:52 pm 20:52 Cloudy 63 17.2 60 15.6 90 90 ESE 7 11 30.03 1017 10 16 0.01 0.25
9:27 pm 21:27 Cloudy 63 17.2 60 15.6 90 90 ESE 7 11 30.06 1018 10 16 0.00 0.00
9:52 pm 21:52 Cloudy with Light Rain 63 17.2 60 15.6 90 90 E 5 7 30.03 1017 10 16 0.00 0.03
10:11 pm 22:11 Cloudy with Light Rain 62 16.7 60 15.6 93 93 E 6 9 30.03 1017 5 8 0.01 0.25
10:52 pm 22:52 Cloudy 62 16.7 60 15.6 93 93 E 9 15 30.00 1016 10 16 0.01 0.25
11:52 pm 23:52 Cloudy 63 17.2 61 16.1 93 93 VRB 5 7 30.01 1016 10 16 0.00 0.00

Powered by AerisWeather